EN

Hourly Weather Bartoldy

Today, 28 January, Thursday

Time Temperature Precipitation Wind Pressure Humidity
00:00 -5°C° 0 mm 3 mps 745 mmHg 95%
01:00 -5°C° 0 mm 3 mps 745 mmHg 95%
02:00 -5°C° 0 mm 3 mps 745 mmHg 95%
03:00 -4°C° 0 mm 2 mps 745 mmHg 96%
04:00 -4°C° 0 mm 2 mps 744 mmHg 96%
05:00 -5°C° 0 mm 3 mps 744 mmHg 96%
06:00 -6°C° 0 mm 3 mps 744 mmHg 96%
07:00 -6°C° 0 mm 3 mps 743 mmHg 96%
08:00 -5°C° 0 mm 3 mps 743 mmHg 93%
09:00 -4°C° 0 mm 4 mps 742 mmHg 90%
10:00 -4°C° 0 mm 4 mps 742 mmHg 87%
11:00 -4°C° 0 mm 5 mps 741 mmHg 86%
12:00 -4°C° 0 mm 5 mps 740 mmHg 86%
13:00 -3°C° 0 mm 6 mps 739 mmHg 85%
14:00 -2°C° 0.5 mm 5 mps 739 mmHg 89%
15:00 -2°C° 0.5 mm 5 mps 738 mmHg 93%
16:00 -4°C° 0.5 mm 5 mps 737 mmHg 97%
17:00 -4°C° 0.3 mm 5 mps 737 mmHg 94%
18:00 -3°C° 0.3 mm 4 mps 737 mmHg 91%
19:00 -3°C° 0.3 mm 4 mps 737 mmHg 88%
20:00 -4°C° 0 mm 4 mps 737 mmHg 88%
21:00 -5°C° 0 mm 4 mps 736 mmHg 89%
22:00 -6°C° 0 mm 3 mps 736 mmHg 89%
23:00 -7°C° 0 mm 4 mps 736 mmHg 90%

Tomorrow, 29 January, Friday

Time Temperature Precipitation Wind Pressure Humidity
00:00 -7°C° 0 mm 4 mps 736 mmHg 91%
01:00 -7°C° 0 mm 4 mps 736 mmHg 92%
02:00 -7°C° 0 mm 5 mps 736 mmHg 91%
03:00 -7°C° 0 mm 5 mps 736 mmHg 90%
04:00 -8°C° 0 mm 6 mps 735 mmHg 89%
05:00 -8°C° 0 mm 6 mps 735 mmHg 88%
06:00 -7°C° 0 mm 7 mps 735 mmHg 87%
07:00 -7°C° 0 mm 7 mps 735 mmHg 86%
08:00 -7°C° 0 mm 7 mps 735 mmHg 85%
09:00 -6°C° 0 mm 7 mps 735 mmHg 84%
10:00 -6°C° 0 mm 7 mps 735 mmHg 83%
11:00 -5°C° 0 mm 6 mps 735 mmHg 84%
12:00 -5°C° 0 mm 6 mps 735 mmHg 84%
13:00 -4°C° 0 mm 6 mps 735 mmHg 84%
14:00 -4°C° 0 mm 5 mps 735 mmHg 85%
15:00 -3°C° 0 mm 4 mps 735 mmHg 85%
16:00 -4°C° 0 mm 4 mps 735 mmHg 86%
17:00 -4°C° 0 mm 3 mps 735 mmHg 87%
18:00 -3°C° 0 mm 2 mps 735 mmHg 89%
19:00 -3°C° 0 mm 2 mps 734 mmHg 90%
20:00 -2°C° 0 mm 1 mps 734 mmHg 90%
21:00 -2°C° 0 mm 1 mps 734 mmHg 91%
22:00 -2°C° 0 mm 1 mps 734 mmHg 91%
23:00 -2°C° 0 mm 1 mps 734 mmHg 92%

Day after tomorrow, 30 January, Saturday

Time Temperature Precipitation Wind Pressure Humidity
00:00 -2°C° 0 mm 1 mps 734 mmHg 93%
01:00 -2°C° 0 mm 1 mps 734 mmHg 93%
02:00 -2°C° 0 mm 1 mps 734 mmHg 94%
03:00 -2°C° 0 mm 1 mps 733 mmHg 95%
04:00 -2°C° 0 mm 1 mps 733 mmHg 95%
05:00 -2°C° 0.1 mm 1 mps 733 mmHg 95%
06:00 -2°C° 0.1 mm 1 mps 733 mmHg 95%
07:00 -2°C° 0.1 mm 1 mps 733 mmHg 95%
08:00 -2°C° 0 mm 1 mps 733 mmHg 93%
09:00 -2°C° 0 mm 1 mps 733 mmHg 92%
10:00 -1°C° 0 mm 1 mps 733 mmHg 90%
11:00 -1°C° 0.1 mm 1 mps 733 mmHg 89%
12:00 -3°C° 0.1 mm 2 mps 733 mmHg 89%
13:00 -2°C° 0.1 mm 3 mps 733 mmHg 88%
14:00 -2°C° 0.2 mm 3 mps 733 mmHg 90%
15:00 -4°C° 0.2 mm 3 mps 734 mmHg 91%
16:00 -4°C° 0.2 mm 4 mps 734 mmHg 93%
17:00 -5°C° 0.1 mm 4 mps 735 mmHg 91%
18:00 -7°C° 0.1 mm 4 mps 735 mmHg 88%
19:00 -7°C° 0.1 mm 5 mps 736 mmHg 86%
20:00 -8°C° 0 mm 4 mps 736 mmHg 86%
21:00 -8°C° 0 mm 4 mps 736 mmHg 87%
22:00 -8°C° 0 mm 4 mps 736 mmHg 88%
23:00 -8°C° 0 mm 4 mps 737 mmHg 88%

31 January, Sunday

Time Temperature Precipitation Wind Pressure Humidity
00:00 -8°C° 0 mm 5 mps 737 mmHg 88%
01:00 -10°C° 0 mm 5 mps 737 mmHg 89%
02:00 -10°C° 0 mm 5 mps 737 mmHg 89%
03:00 -10°C° 0 mm 5 mps 737 mmHg 89%
04:00 -10°C° 0 mm 5 mps 738 mmHg 89%
05:00 -10°C° 0 mm 5 mps 738 mmHg 91%
06:00 -10°C° 0 mm 5 mps 738 mmHg 92%
07:00 -10°C° 0 mm 5 mps 738 mmHg 94%
08:00 -8°C° 0 mm 5 mps 739 mmHg 92%
09:00 -8°C° 0 mm 5 mps 739 mmHg 91%
10:00 -7°C° 0 mm 5 mps 739 mmHg 90%
11:00 -6°C° 0 mm 5 mps 739 mmHg 88%
12:00 -6°C° 0 mm 5 mps 739 mmHg 86%
13:00 -5°C° 0 mm 5 mps 739 mmHg 84%
14:00 -6°C° 0 mm 5 mps 739 mmHg 84%
15:00 -7°C° 0 mm 4 mps 739 mmHg 84%
16:00 -7°C° 0 mm 4 mps 739 mmHg 85%
17:00 -8°C° 0 mm 4 mps 739 mmHg 86%
18:00 -8°C° 0 mm 4 mps 739 mmHg 87%
19:00 -9°C° 0 mm 4 mps 740 mmHg 88%
20:00 -9°C° 0 mm 4 mps 739 mmHg 88%
21:00 -9°C° 0 mm 4 mps 739 mmHg 88%
22:00 -8°C° 0 mm 3 mps 739 mmHg 88%
23:00 -8°C° 0 mm 3 mps 739 mmHg 88%

1 February, Monday

Time Temperature Precipitation Wind Pressure Humidity
00:00 -8°C° 0 mm 3 mps 739 mmHg 88%
01:00 -7°C° 0 mm 2 mps 739 mmHg 88%
02:00 -7°C° 0 mm 2 mps 738 mmHg 88%
03:00 -7°C° 0 mm 2 mps 738 mmHg 88%
04:00 -8°C° 0 mm 2 mps 738 mmHg 88%
05:00 -8°C° 0 mm 2 mps 738 mmHg 89%
06:00 -8°C° 0 mm 2 mps 738 mmHg 89%
07:00 -8°C° 0 mm 2 mps 738 mmHg 89%
08:00 -9°C° 0 mm 3 mps 738 mmHg 87%
09:00 -8°C° 0 mm 3 mps 738 mmHg 86%
10:00 -8°C° 0 mm 3 mps 738 mmHg 84%
11:00 -7°C° 0 mm 3 mps 738 mmHg 84%
12:00 -5°C° 0 mm 2 mps 738 mmHg 84%
13:00 -5°C° 0 mm 2 mps 738 mmHg 84%
14:00 -3°C° 0 mm 1 mps 738 mmHg 86%
15:00 -3°C° 0 mm 1 mps 738 mmHg 88%
16:00 -3°C° 0 mm 1 mps 738 mmHg 90%
17:00 -5°C° 0 mm 0 mps 738 mmHg 91%
18:00 -5°C° 0 mm 0 mps 738 mmHg 91%
19:00 -6°C° 0 mm 0 mps 739 mmHg 91%
20:00 -6°C° 0 mm 1 mps 739 mmHg 90%
21:00 -6°C° 0 mm 1 mps 740 mmHg 89%
22:00 -7°C° 0 mm 2 mps 741 mmHg 89%
23:00 -7°C° 0 mm 2 mps 741 mmHg 88%

2 February, Tuesday

Time Temperature Precipitation Wind Pressure Humidity
00:00 -7°C° 0 mm 2 mps 742 mmHg 87%
01:00 -7°C° 0 mm 2 mps 742 mmHg 87%
02:00 -7°C° 0 mm 2 mps 742 mmHg 87%
03:00 -7°C° 0 mm 2 mps 743 mmHg 88%
04:00 -7°C° 0 mm 2 mps 743 mmHg 88%
05:00 -7°C° 0 mm 2 mps 744 mmHg 89%
06:00 -7°C° 0 mm 2 mps 744 mmHg 89%
07:00 -7°C° 0 mm 2 mps 745 mmHg 90%
08:00 -6°C° 0 mm 2 mps 745 mmHg 89%
09:00 -5°C° 0 mm 2 mps 745 mmHg 88%
10:00 -4°C° 0 mm 2 mps 745 mmHg 87%
11:00 -4°C° 0 mm 2 mps 745 mmHg 86%
12:00 -4°C° 0 mm 3 mps 744 mmHg 85%
13:00 -4°C° 0 mm 3 mps 744 mmHg 84%
14:00 -4°C° 0 mm 3 mps 743 mmHg 85%
15:00 -4°C° 0 mm 4 mps 742 mmHg 85%
16:00 -4°C° 0 mm 4 mps 742 mmHg 85%
17:00 -5°C° 0.4 mm 5 mps 740 mmHg 89%
18:00 -5°C° 0.4 mm 5 mps 739 mmHg 93%
19:00 -4°C° 0.4 mm 6 mps 738 mmHg 97%
20:00 -4°C° 1.1 mm 6 mps 738 mmHg 97%
21:00 -2°C° 1.1 mm 5 mps 737 mmHg 97%
22:00 -1°C° 1.1 mm 5 mps 736 mmHg 98%
23:00 0°C° 0.2 mm 5 mps 736 mmHg 98%
Show more

We Need Your Consent

Meteoprog and our Service Providers may store and access personal data such as cookies, device identifiers or other similar technologies on your device and process such data to personalise content and ads, as well as provide social media features and to analyse the traffic.

  • Store and/or access information on your device

    Cookies, device identifiers or other information can be stored or accessed on your device for the purposes indicated above.

  • Personalised ads and content, ad and content measurement, audience insights, and products development

    Ads and content can be personalised based on a profile. More data can be added to better personalise ads and content. Ad and content performance can be measured. Insights about the audience who saw the ads and content can be derived. Such data can be used to develop or improve user’s experience, systems and software.

By clicking ‘I Agree’ you will allow the use of indicated cookies, device identifiers, web beacons or other similar technologies. Your settings can be changed in the browser on your device.

For certain purposes, legitimate interests may be relied on, rather than consent. You can read more about this in our Privacy and Cookie Policy.